User: anonymous   Login
Location: Unspecified
(0.0000°N, 0.0000°E)
Time: 15:12:15
(UTC+00:00)
Language:

A-11 Canister half - Orbit

View from above orbital plane
View from above orbital plane
View from above satellite
View from above satellite

Ground track
Ground track

The orbit data is extracted from the following two-line orbital elements,

1    53U 60009E   18346.90274933 -.00000055 +00000-0 +28237-3 0  9998
2    53 047.2735 162.9227 0096687 248.0243 111.0248 12.17216860601262
Epoch (UTC): 12 December 2018 21:39:57
Eccentricity: 0.0096687
inclination: 47.2735°
perigee height: 1527 km
apogee height: 1682 km
right ascension of ascending node: 162.9227°
argument of perigee: 248.0243°
revolutions per day: 12.17216860
mean anomaly at epoch: 111.0248°
orbit number at epoch: 60126

The dashed part of the orbit path shows where the satellite is in the earth's shadow,  

DLR